This demonstration page uses our WeatherBlox Daily Observations layout. Learn more.

Left ArrowRight Arrow

41.86663, -103.66717

Hourly Observations for August 23, 2018

Temp ( °F °C ) Dew Point ( °F °C ) Humidity (%) Winds ( mph kmh ) Pressure ( in mb ) Visibility ( mi km ) Precip ( " mm )
12:53 am 00:53 Cloudy with Mist and Fog 63 17.2 63 17.2 100 100 Calm 29.95 1014 6 10 0.02 0.51
1:53 am 01:53 Mostly Clear 62 16.7 62 16.7 100 100 ESE 6 9 29.91 1013 7 11 0.00 0.00
2:53 am 02:53 Clear 61 16.1 61 16.1 100 100 Calm 29.87 1012 9 14 0.00 0.00
3:53 am 03:53 Mostly Clear with Mist and Fog 59 15 59 15 100 100 Calm 29.87 1011 6 10 0.00 0.00
4:53 am 04:53 Clear with Mist and Fog 57 13.9 57 13.9 100 100 SE 5 7 29.86 1011 6 10 0.00 0.00
5:41 am 05:41 Partly Cloudy with Mist and Fog 57 13.9 57 13.9 100 100 E 5 7 29.85 1011 2 3 0.00 0.00
5:47 am 05:47 Mostly Cloudy with Mist and Fog 55 13 55 13 100 100 ESE 6 9 29.88 1012 1 2 0.00 0.00
5:53 am 05:53 Mostly Cloudy with Fog 55 12.8 55 12.8 100 100 E 7 11 29.85 1011 1 1 0.00 0.00
6:02 am 06:02 Mostly Cloudy with Fog 55 13 55 13 100 100 E 7 11 29.85 1011 0 0 0.00 0.00
6:14 am 06:14 Mostly Cloudy with Mist and Fog 55 13 55 13 100 100 E 6 9 29.85 1011 1 2 0.00 0.00
6:22 am 06:22 Mostly Cloudy with Fog 57 14 57 14 100 100 E 7 11 29.85 1011 0 0 0.00 0.00
6:41 am 06:41 Mostly Cloudy with Mist and Fog 58 14.4 58 14.4 100 100 ENE 5 7 29.85 1011 1 2 0.00 0.00
6:45 am 06:45 Mostly Cloudy with Mist and Fog 58 14.4 58 14.4 100 100 ENE 5 7 29.85 1011 3 5 0.00 0.00
6:53 am 06:53 Partly Cloudy with Mist and Fog 59 15 59 15 100 100 E 5 7 29.85 1011 4 6 0.00 0.00
7:53 am 07:53 Sunny 63 17.2 62 16.7 97 97 ESE 3 6 29.86 1011 7 11 0.00 0.00
8:53 am 08:53 Sunny 68 20 62 16.7 81 81 Calm 29.86 1011 10 16 0.00 0.00
9:53 am 09:53 Sunny 77 25 53 11.7 43 43 W 16 26 29.84 1010 10 16 0.00 0.00
10:53 am 10:53 Sunny 80 26.7 53 11.7 39 39 W 14 22 29.83 1010 10 16 0.00 0.00
11:53 am 11:53 Sunny 84 28.9 49 9.4 30 30 WNW 13 20 29.81 1010 9 14 0.00 0.00
12:53 pm 12:53 Sunny 85 29.4 48 8.9 28 28 WNW 10 17 29.79 1009 8 13 0.00 0.00
1:53 pm 13:53 Hazy 89 31.7 43 6.1 20 20 W 20 31 29.75 1008 5 8 0.00 0.00
2:53 pm 14:53 Hazy 88 31.1 43 6.1 21 21 W 20 31 29.73 1007 5 8 0.00 0.00
3:53 pm 15:53 Hazy 88 31.1 44 6.7 22 22 W 21 33 29.72 1006 5 8 0.00 0.00
4:53 pm 16:53 Hazy 82 27.8 45 7.2 27 27 WNW 31 50 29.75 1008 6 10 0.00 0.00
5:53 pm 17:53 Hazy 75 23.9 47 8.3 37 37 NW 12 19 29.78 1009 6 10 0.00 0.00
6:53 pm 18:53 Hazy 74 23.3 48 8.9 40 40 NW 5 7 29.75 1007 6 10 0.00 0.00
7:53 pm 19:53 Clear 65 18.3 51 10.6 61 61 N 5 7 29.78 1008 7 11 0.00 0.00
8:53 pm 20:53 Clear 63 17.2 51 10.6 65 65 Calm 29.79 1009 7 11 0.00 0.00
9:53 pm 21:53 Clear 59 15 52 11.1 78 78 N 6 9 29.80 1009 8 13 0.00 0.00
10:53 pm 22:53 Clear 54 12.2 50 10 87 87 NNW 8 13 29.82 1010 8 13 0.00 0.00
11:53 pm 23:53 Clear 53 11.7 50 10 89 89 NW 8 13 29.82 1010 7 11 0.00 0.00

Powered by AerisWeather